This demonstration page uses our WeatherBlox Daily Observations layout. Learn more.

Left ArrowRight Arrow

39.51506, -84.39828

Hourly Observations for June 29, 2016

Temp ( °F °C ) Dew Point ( °F °C ) Humidity (%) Winds ( mph kmh ) Pressure ( in mb ) Visibility ( mi km ) Precip ( " mm )
12:15 am 00:15 Clear 60 15.3 51 10.4 73 73 NW 3 6 30.09 1019 10 16 N/A
12:35 am 00:35 Clear 60 15.3 51 10.5 73 73 NW 5 7 30.09 1019 10 16 N/A
12:55 am 00:55 Clear 60 15.3 51 10.3 72 72 N N/A 30.09 1019 10 16 N/A
1:15 am 01:15 Clear 60 15.3 51 10.7 74 74 NW 3 6 30.09 1019 10 16 N/A
1:35 am 01:35 Clear 60 15.3 51 10.6 74 74 N N/A 30.09 1019 10 16 N/A
1:55 am 01:55 Clear 57 14.1 50 9.9 76 76 N N/A 30.09 1019 10 16 N/A
2:15 am 02:15 Clear 58 14.2 50 10.2 77 77 N N/A 30.09 1019 10 16 N/A
2:35 am 02:35 Clear 60 15.3 52 11.2 77 77 N N/A 30.09 1019 10 16 N/A
2:55 am 02:55 Clear 57 14.1 50 9.9 76 76 N N/A 30.09 1019 10 16 N/A
3:15 am 03:15 Mostly Cloudy 57 13.8 50 10.1 79 79 N N/A 30.09 1019 10 16 N/A
3:35 am 03:35 Partly Cloudy 57 13.8 50 10 78 78 N N/A 30.09 1019 10 16 N/A
3:55 am 03:55 Partly Cloudy 57 13.8 50 10 78 78 N N/A 30.09 1019 10 16 N/A
4:15 am 04:15 Mostly Cloudy 60 15.3 53 11.4 78 78 N N/A 30.09 1019 10 16 N/A
4:35 am 04:35 Mostly Cloudy 60 15.3 53 11.5 78 78 N N/A 30.09 1019 10 16 N/A
4:55 am 04:55 Mostly Cloudy 60 15.3 53 11.5 78 78 N 3 6 30.09 1019 10 16 N/A
5:15 am 05:15 Partly Cloudy 57 14.1 51 10.4 79 79 NNE 3 6 30.09 1019 10 16 N/A
5:35 am 05:35 Clear 58 14.2 51 10.5 79 79 N 5 7 30.09 1019 10 16 N/A
5:55 am 05:55 Partly Cloudy 57 14.1 51 10.5 79 79 N 3 6 30.09 1019 10 16 N/A
6:15 am 06:15 Mostly Cloudy 60 15.3 53 11.6 79 79 N 3 6 30.09 1019 10 16 N/A
6:35 am 06:35 Cloudy 60 15.3 53 11.5 78 78 N 3 6 30.09 1019 10 16 N/A
6:55 am 06:55 Mostly Cloudy 60 15.3 53 11.5 78 78 N 5 7 30.09 1019 10 16 N/A
7:15 am 07:15 Partly Cloudy 60 15.3 53 11.5 78 78 NNE 5 7 30.09 1019 10 16 N/A
7:35 am 07:35 Sunny 60 15.3 53 11.5 78 78 N 5 7 30.12 1020 10 16 N/A
7:55 am 07:55 Sunny 61 16.3 53 11.8 75 75 N 8 13 30.06 1018 10 16 N/A
8:15 am 08:15 Sunny 63 17 53 11.6 71 71 N 8 13 30.09 1019 10 16 N/A
8:35 am 08:35 Sunny 64 18 54 12 68 68 N 5 7 30.09 1019 10 16 N/A
8:55 am 08:55 Sunny 67 19.5 55 12.7 65 65 N 7 11 30.09 1019 10 16 N/A
9:15 am 09:15 Sunny 69 20.8 56 13.2 62 62 N 9 15 30.09 1019 10 16 N/A
9:35 am 09:35 Partly Cloudy 69 20.8 55 12.8 60 60 N 8 13 30.12 1020 10 16 N/A
9:55 am 09:55 Partly Cloudy 69 20.8 53 11.8 57 57 NNE 8 13 30.09 1019 10 16 N/A
10:15 am 10:15 Sunny 69 20.8 53 11.5 55 55 N 6 9 30.09 1019 10 16 N/A
10:35 am 10:35 Sunny 70 21.2 52 11.1 53 53 N 8 13 30.09 1019 10 16 N/A
10:55 am 10:55 Partly Cloudy 74 23.6 54 12.1 49 49 N 9 15 30.09 1019 10 16 N/A
11:15 am 11:15 Mostly Cloudy 69 20.8 50 10 50 50 N 6 9 30.09 1019 10 16 N/A
11:35 am 11:35 Mostly Cloudy 74 23.1 51 10.7 46 46 N 7 11 30.09 1019 10 16 N/A
11:55 am 11:55 Partly Cloudy 74 23.6 50 10 42 42 N 9 15 30.09 1019 10 16 N/A
12:15 pm 12:15 Mostly Cloudy 74 23.6 50 10 42 42 NNW 8 13 30.09 1019 10 16 N/A
12:35 pm 12:35 Mostly Cloudy 74 23.6 50 9.8 42 42 NNE 6 9 30.09 1019 10 16 N/A
12:55 pm 12:55 Partly Cloudy 75 23.8 46 8 36 36 NE 7 11 30.09 1019 10 16 N/A
1:15 pm 13:15 Sunny 76 24.6 44 6.4 31 31 N 7 11 30.09 1019 10 16 N/A
1:35 pm 13:35 Sunny 77 25.1 39 4.1 26 26 WNW 8 13 30.09 1019 10 16 N/A
1:55 pm 13:55 Sunny 77 25.1 37 2.6 23 23 NNW 8 13 30.09 1019 10 16 N/A
2:15 pm 14:15 Sunny 77 25.1 35 1.7 22 22 NE 8 13 30.09 1019 10 16 N/A
2:35 pm 14:35 Sunny 77 25.1 35 1.7 22 22 NNW 8 13 30.06 1018 10 16 N/A
2:55 pm 14:55 Sunny 77 25.1 35 1.4 21 21 N 3 6 30.06 1018 10 16 N/A
3:15 pm 15:15 Sunny 77 25.2 36 2.2 22 22 N 7 11 30.06 1018 10 16 N/A
3:35 pm 15:35 Sunny 78 25.5 37 2.5 22 22 E 5 7 30.06 1018 10 16 N/A
3:55 pm 15:55 Sunny 80 26.4 38 3.5 23 23 N 8 13 30.06 1018 10 16 N/A
4:15 pm 16:15 Sunny 80 26.5 37 2.9 22 22 N N/A 30.06 1018 10 16 N/A
4:35 pm 16:35 Sunny 78 25.8 38 3.3 23 23 WNW 3 6 30.06 1018 10 16 N/A
4:55 pm 16:55 Sunny 79 26.2 38 3.6 23 23 N N/A 30.06 1018 10 16 N/A
5:15 pm 17:15 Sunny 80 26.5 41 4.8 25 25 WNW 8 13 30.03 1017 10 16 N/A
5:35 pm 17:35 Sunny 79 26.1 39 3.7 24 24 N N/A 30.03 1017 10 16 N/A
5:55 pm 17:55 Partly Cloudy 80 26.5 41 5 25 25 NNW 6 9 30.03 1017 10 16 N/A
6:15 pm 18:15 Partly Cloudy 80 26.5 41 4.9 25 25 NNE 7 11 30.03 1017 10 16 N/A
6:35 pm 18:35 Sunny 80 26.5 42 5.4 26 26 N 7 11 30.03 1017 10 16 N/A
6:55 pm 18:55 Sunny 77 25.1 40 4.5 26 26 N 3 6 30.03 1017 10 16 N/A
7:15 pm 19:15 Sunny 77 25.1 43 6.1 30 30 NNW 5 7 30.03 1017 10 16 N/A
7:35 pm 19:35 Sunny 77 25.1 42 5.6 29 29 NNW 7 11 30.03 1017 10 16 N/A
7:55 pm 19:55 Sunny 77 25.1 43 6.3 30 30 NW 3 6 30.03 1017 10 16 N/A
8:15 pm 20:15 Sunny 76 24.4 45 7.2 33 33 NNW 3 6 30.03 1017 10 16 N/A
8:35 pm 20:35 Sunny 74 23.6 47 8.6 38 38 NW 3 6 30.03 1017 10 16 N/A
8:55 pm 20:55 Sunny 70 20.9 51 10.4 51 51 N N/A 30.03 1017 10 16 N/A
9:15 pm 21:15 Partly Cloudy 69 20.8 53 11.8 57 57 N N/A 30.03 1017 10 16 N/A
9:35 pm 21:35 Partly Cloudy 69 20.4 56 13.2 63 63 N N/A 30.03 1017 10 16 N/A
9:55 pm 21:55 Partly Cloudy 69 20.8 55 12.5 59 59 N N/A 30.03 1017 10 16 N/A
10:15 pm 22:15 Partly Cloudy 68 19.8 53 11.8 60 60 N N/A 30.06 1018 10 16 N/A
10:35 pm 22:35 Partly Cloudy 64 17.9 53 11.4 66 66 N N/A 30.06 1018 10 16 N/A
10:55 pm 22:55 Clear 64 17.5 51 10.8 65 65 N 3 6 30.03 1017 10 16 N/A
11:15 pm 23:15 Clear 63 17.4 52 11.2 67 67 N N/A 30.03 1017 10 16 N/A
11:35 pm 23:35 Clear 61 16 53 11.5 75 75 N N/A 30.03 1017 10 16 N/A
11:55 pm 23:55 Partly Cloudy 61 16 53 11.6 75 75 N N/A 30.09 1019 10 16 N/A

Powered by AerisWeather